Time,TemperatureF,DewpointF,PressureIn,WindDirection,WindDirectionDegrees,WindSpeedMPH,WindSpeedGustMPH,Humidity,HourlyPrecipIn,Conditions,Clouds,dailyrainin,SoftwareType,DateUTC
2013-08-23 00:01:00,58.4,57.0,30.11,SW,225,0.0,1.0,98,0.00,,,0.00,Rainwise IP-100,2013-08-23 04:01:00,
2013-08-23 00:02:00,58.6,58.0,30.11,SW,225,0.0,1.0,98,0.00,,,0.00,Rainwise IP-100,2013-08-23 04:02:00,
2013-08-23 00:03:00,58.4,57.0,30.11,NW,315,4.0,4.0,98,0.00,,,0.00,Rainwise IP-100,2013-08-23 04:03:00,
2013-08-23 00:06:00,58.9,58.0,30.11,NW,315,0.0,6.0,98,0.00,,,0.00,Rainwise IP-100,2013-08-23 04:06:00,
2013-08-23 00:07:00,59.0,58.0,30.11,NW,315,0.0,6.0,98,0.00,,,0.00,Rainwise IP-100,2013-08-23 04:07:00,
2013-08-23 00:12:00,59.0,58.0,30.12,NW,315,2.0,2.0,98,0.00,,,0.00,Rainwise IP-100,2013-08-23 04:12:00,
2013-08-23 00:17:00,58.8,58.0,30.12,NW,315,0.0,2.0,98,0.00,,,0.00,Rainwise IP-100,2013-08-23 04:17:00,
2013-08-23 00:22:00,58.4,57.0,30.12,NW,315,2.0,2.0,98,0.00,,,0.00,Rainwise IP-100,2013-08-23 04:22:00,
2013-08-23 00:27:00,58.1,57.0,30.12,NW,315,1.0,2.0,98,0.00,,,0.00,Rainwise IP-100,2013-08-23 04:27:00,
2013-08-23 00:32:00,57.7,57.0,30.11,NW,315,1.0,2.0,97,0.00,,,0.00,Rainwise IP-100,2013-08-23 04:32:00,
2013-08-23 00:37:00,57.9,57.0,30.11,West,270,0.0,3.0,97,0.00,,,0.00,Rainwise IP-100,2013-08-23 04:37:00,
2013-08-23 00:43:00,57.9,57.0,30.12,West,270,0.0,2.0,97,0.00,,,0.00,Rainwise IP-100,2013-08-23 04:43:00,
2013-08-23 00:48:00,58.0,57.0,30.12,West,270,2.0,2.0,98,0.00,,,0.00,Rainwise IP-100,2013-08-23 04:48:00,
2013-08-23 00:53:00,58.5,58.0,30.12,NW,315,0.0,6.0,98,0.00,,,0.00,Rainwise IP-100,2013-08-23 04:53:00,
2013-08-23 00:58:00,58.7,58.0,30.12,NW,315,1.0,3.0,98,0.00,,,0.00,Rainwise IP-100,2013-08-23 04:58:00,
2013-08-23 01:03:00,58.9,58.0,30.12,NW,315,2.0,3.0,98,0.00,,,0.00,Rainwise IP-100,2013-08-23 05:03:00,
2013-08-23 01:08:00,58.7,58.0,30.12,West,270,2.0,2.0,98,0.00,,,0.00,Rainwise IP-100,2013-08-23 05:08:00,
2013-08-23 01:13:00,58.6,58.0,30.12,NNE,22,0.0,2.0,98,0.00,,,0.00,Rainwise IP-100,2013-08-23 05:13:00,
2013-08-23 01:18:00,57.9,57.0,30.12,SE,135,0.0,2.0,97,0.00,,,0.00,Rainwise IP-100,2013-08-23 05:18:00,
2013-08-23 01:23:00,57.5,57.0,30.12,SE,135,1.0,2.0,97,0.00,,,0.00,Rainwise IP-100,2013-08-23 05:23:00,
2013-08-23 01:28:00,57.0,56.0,30.13,SE,135,0.0,2.0,97,0.00,,,0.00,Rainwise IP-100,2013-08-23 05:28:00,
2013-08-23 01:33:00,56.3,55.0,30.12,SE,135,0.0,0.0,97,0.00,,,0.00,Rainwise IP-100,2013-08-23 05:33:00,
2013-08-23 01:39:00,55.9,55.0,30.12,SE,135,0.0,0.0,97,0.00,,,0.00,Rainwise IP-100,2013-08-23 05:39:00,
2013-08-23 01:44:00,55.6,55.0,30.12,SE,135,0.0,0.0,97,0.00,,,0.00,Rainwise IP-100,2013-08-23 05:44:00,
2013-08-23 01:49:00,55.3,54.0,30.12,SE,135,1.0,0.0,97,0.00,,,0.00,Rainwise IP-100,2013-08-23 05:49:00,
2013-08-23 01:54:00,55.3,54.0,30.12,SE,135,0.0,2.0,97,0.00,,,0.00,Rainwise IP-100,2013-08-23 05:54:00,
2013-08-23 01:59:00,55.1,54.0,30.12,SE,135,0.0,0.0,97,0.00,,,0.00,Rainwise IP-100,2013-08-23 05:59:00,
2013-08-23 02:04:00,54.9,54.0,30.12,SE,135,0.0,1.0,97,0.00,,,0.00,Rainwise IP-100,2013-08-23 06:04:00,
2013-08-23 02:09:00,54.9,54.0,30.12,SE,135,0.0,0.0,97,0.00,,,0.00,Rainwise IP-100,2013-08-23 06:09:00,
2013-08-23 02:14:00,54.7,54.0,30.12,SE,135,0.0,0.0,97,0.00,,,0.00,Rainwise IP-100,2013-08-23 06:14:00,
2013-08-23 02:19:00,54.5,54.0,30.12,SE,135,0.0,0.0,97,0.00,,,0.00,Rainwise IP-100,2013-08-23 06:19:00,
2013-08-23 02:24:00,54.3,53.0,30.11,SE,135,0.0,0.0,97,0.00,,,0.00,Rainwise IP-100,2013-08-23 06:24:00,
2013-08-23 02:29:00,53.9,53.0,30.12,SE,135,0.0,0.0,97,0.00,,,0.00,Rainwise IP-100,2013-08-23 06:29:00,
2013-08-23 02:34:00,53.9,53.0,30.11,SE,135,0.0,0.0,97,0.00,,,0.00,Rainwise IP-100,2013-08-23 06:34:00,
2013-08-23 02:40:00,53.7,53.0,30.12,SE,135,0.0,0.0,97,0.00,,,0.00,Rainwise IP-100,2013-08-23 06:40:00,
2013-08-23 02:45:00,53.5,53.0,30.12,SE,135,0.0,0.0,97,0.00,,,0.00,Rainwise IP-100,2013-08-23 06:45:00,
2013-08-23 02:50:00,53.4,53.0,30.12,SE,135,0.0,0.0,97,0.00,,,0.00,Rainwise IP-100,2013-08-23 06:50:00,
2013-08-23 02:55:00,53.3,52.0,30.12,SE,135,0.0,0.0,97,0.00,,,0.00,Rainwise IP-100,2013-08-23 06:55:00,
2013-08-23 03:00:00,53.3,52.0,30.12,SE,135,0.0,0.0,97,0.00,,,0.00,Rainwise IP-100,2013-08-23 07:00:00,
2013-08-23 03:05:00,53.2,52.0,30.12,SE,135,0.0,0.0,97,0.00,,,0.00,Rainwise IP-100,2013-08-23 07:05:00,
2013-08-23 03:10:00,52.8,52.0,30.12,SE,135,0.0,0.0,97,0.00,,,0.00,Rainwise IP-100,2013-08-23 07:10:00,
2013-08-23 03:15:00,52.4,51.0,30.12,SE,135,0.0,1.0,97,0.00,,,0.00,Rainwise IP-100,2013-08-23 07:15:00,
2013-08-23 03:20:00,52.7,52.0,30.12,SE,135,1.0,1.0,97,0.00,,,0.00,Rainwise IP-100,2013-08-23 07:20:00,
2013-08-23 03:25:00,52.4,51.0,30.12,SE,135,0.0,1.0,97,0.00,,,0.00,Rainwise IP-100,2013-08-23 07:25:00,
2013-08-23 03:30:00,52.2,51.0,30.12,SE,135,0.0,1.0,97,0.00,,,0.00,Rainwise IP-100,2013-08-23 07:30:00,
2013-08-23 03:35:00,52.1,51.0,30.12,SE,135,0.0,0.0,97,0.00,,,0.00,Rainwise IP-100,2013-08-23 07:35:00,
2013-08-23 03:41:00,51.9,51.0,30.12,SE,135,1.0,0.0,97,0.00,,,0.00,Rainwise IP-100,2013-08-23 07:41:00,
2013-08-23 03:46:00,52.3,51.0,30.12,SE,135,0.0,2.0,97,0.00,,,0.00,Rainwise IP-100,2013-08-23 07:46:00,
2013-08-23 03:51:00,52.2,51.0,30.12,SE,135,0.0,1.0,97,0.00,,,0.00,Rainwise IP-100,2013-08-23 07:51:00,
2013-08-23 03:56:00,51.9,51.0,30.12,SE,135,0.0,0.0,97,0.00,,,0.00,Rainwise IP-100,2013-08-23 07:56:00,
2013-08-23 04:01:00,51.8,51.0,30.12,SE,135,0.0,1.0,97,0.00,,,0.00,Rainwise IP-100,2013-08-23 08:01:00,
2013-08-23 04:06:00,51.6,51.0,30.12,SE,135,0.0,1.0,97,0.00,,,0.00,Rainwise IP-100,2013-08-23 08:06:00,
2013-08-23 04:11:00,51.4,50.0,30.12,SE,135,0.0,0.0,97,0.00,,,0.00,Rainwise IP-100,2013-08-23 08:11:00,
2013-08-23 04:16:00,51.3,50.0,30.12,SE,135,0.0,0.0,97,0.00,,,0.00,Rainwise IP-100,2013-08-23 08:16:00,
2013-08-23 04:21:00,51.2,50.0,30.12,SE,135,0.0,0.0,97,0.00,,,0.00,Rainwise IP-100,2013-08-23 08:21:00,
2013-08-23 04:26:00,50.9,50.0,30.12,SE,135,0.0,0.0,97,0.00,,,0.00,Rainwise IP-100,2013-08-23 08:26:00,
2013-08-23 04:31:00,50.6,50.0,30.12,SE,135,0.0,0.0,97,0.00,,,0.00,Rainwise IP-100,2013-08-23 08:31:00,
2013-08-23 04:36:00,50.3,49.0,30.12,SE,135,0.0,0.0,97,0.00,,,0.00,Rainwise IP-100,2013-08-23 08:36:00,
2013-08-23 04:42:00,50.5,50.0,30.12,SE,135,0.0,0.0,97,0.00,,,0.00,Rainwise IP-100,2013-08-23 08:42:00,
2013-08-23 04:47:00,50.9,50.0,30.12,SE,135,0.0,0.0,97,0.00,,,0.00,Rainwise IP-100,2013-08-23 08:47:00,
2013-08-23 04:52:00,51.1,50.0,30.13,SE,135,0.0,0.0,97,0.00,,,0.00,Rainwise IP-100,2013-08-23 08:52:00,
2013-08-23 04:57:00,51.2,50.0,30.13,SE,135,0.0,0.0,97,0.00,,,0.00,Rainwise IP-100,2013-08-23 08:57:00,
2013-08-23 05:02:00,51.3,50.0,30.13,SE,135,0.0,2.0,97,0.00,,,0.00,Rainwise IP-100,2013-08-23 09:02:00,
2013-08-23 05:07:00,51.3,50.0,30.13,SE,135,0.0,0.0,97,0.00,,,0.00,Rainwise IP-100,2013-08-23 09:07:00,
2013-08-23 05:12:00,51.4,50.0,30.13,SE,135,0.0,0.0,97,0.00,,,0.00,Rainwise IP-100,2013-08-23 09:12:00,
2013-08-23 05:17:00,51.6,51.0,30.13,SE,135,0.0,0.0,97,0.00,,,0.00,Rainwise IP-100,2013-08-23 09:17:00,
2013-08-23 05:22:00,52.1,51.0,30.13,SE,135,0.0,0.0,97,0.00,,,0.00,Rainwise IP-100,2013-08-23 09:22:00,
2013-08-23 05:27:00,52.4,51.0,30.13,SE,135,0.0,0.0,97,0.00,,,0.00,Rainwise IP-100,2013-08-23 09:27:00,
2013-08-23 05:32:00,52.7,52.0,30.13,SE,135,0.0,0.0,97,0.00,,,0.00,Rainwise IP-100,2013-08-23 09:32:00,
2013-08-23 05:37:00,53.2,52.0,30.13,SE,135,0.0,0.0,97,0.00,,,0.00,Rainwise IP-100,2013-08-23 09:37:00,
2013-08-23 05:43:00,53.2,52.0,30.14,SE,135,0.0,0.0,97,0.00,,,0.00,Rainwise IP-100,2013-08-23 09:43:00,
2013-08-23 05:48:00,53.4,53.0,30.14,SE,135,0.0,0.0,97,0.00,,,0.00,Rainwise IP-100,2013-08-23 09:48:00,
2013-08-23 05:53:00,53.7,53.0,30.14,SE,135,0.0,0.0,97,0.00,,,0.00,Rainwise IP-100,2013-08-23 09:53:00,
2013-08-23 05:58:00,54.2,53.0,30.14,NNE,22,2.0,2.0,97,0.00,,,0.00,Rainwise IP-100,2013-08-23 09:58:00,
2013-08-23 06:03:00,54.3,53.0,30.14,NW,315,0.0,2.0,97,0.00,,,0.00,Rainwise IP-100,2013-08-23 10:03:00,
2013-08-23 06:08:00,54.3,53.0,30.14,NW,315,1.0,2.0,97,0.00,,,0.00,Rainwise IP-100,2013-08-23 10:08:00,
2013-08-23 06:13:00,54.3,53.0,30.14,SW,225,0.0,2.0,97,0.00,,,0.00,Rainwise IP-100,2013-08-23 10:13:00,
2013-08-23 06:18:00,54.2,53.0,30.15,SW,225,2.0,2.0,97,0.00,,,0.00,Rainwise IP-100,2013-08-23 10:18:00,
2013-08-23 06:23:00,54.4,54.0,30.15,SW,225,1.0,2.0,97,0.00,,,0.00,Rainwise IP-100,2013-08-23 10:23:00,
2013-08-23 06:28:00,54.3,53.0,30.15,SW,225,0.0,2.0,97,0.00,,,0.00,Rainwise IP-100,2013-08-23 10:28:00,
2013-08-23 06:33:00,53.9,53.0,30.15,SW,225,0.0,0.0,97,0.00,,,0.00,Rainwise IP-100,2013-08-23 10:33:00,
2013-08-23 06:38:00,53.9,53.0,30.15,SW,225,0.0,1.0,97,0.00,,,0.00,Rainwise IP-100,2013-08-23 10:38:00,
2013-08-23 06:44:00,53.7,53.0,30.16,NW,315,2.0,3.0,97,0.00,,,0.00,Rainwise IP-100,2013-08-23 10:44:00,
2013-08-23 06:49:00,53.7,53.0,30.16,NW,315,1.0,2.0,97,0.00,,,0.00,Rainwise IP-100,2013-08-23 10:49:00,
2013-08-23 06:54:00,53.6,53.0,30.16,NW,315,1.0,2.0,97,0.00,,,0.00,Rainwise IP-100,2013-08-23 10:54:00,
2013-08-23 06:59:00,53.8,53.0,30.16,NW,315,1.0,2.0,97,0.00,,,0.00,Rainwise IP-100,2013-08-23 10:59:00,
2013-08-23 07:04:00,53.9,53.0,30.17,NW,315,2.0,3.0,97,0.00,,,0.00,Rainwise IP-100,2013-08-23 11:04:00,
2013-08-23 07:09:00,54.2,53.0,30.17,NW,315,0.0,2.0,97,0.00,,,0.00,Rainwise IP-100,2013-08-23 11:09:00,
2013-08-23 07:14:00,54.6,54.0,30.17,NW,315,0.0,0.0,97,0.00,,,0.00,Rainwise IP-100,2013-08-23 11:14:00,
2013-08-23 07:19:00,54.7,54.0,30.17,NNE,22,2.0,2.0,97,0.00,,,0.00,Rainwise IP-100,2013-08-23 11:19:00,
2013-08-23 07:24:00,54.8,54.0,30.17,NNE,22,0.0,2.0,97,0.00,,,0.00,Rainwise IP-100,2013-08-23 11:24:00,
2013-08-23 07:29:00,54.9,54.0,30.17,SE,135,0.0,2.0,97,0.00,,,0.00,Rainwise IP-100,2013-08-23 11:29:00,
2013-08-23 07:34:00,55.1,54.0,30.17,SE,135,0.0,0.0,97,0.00,,,0.00,Rainwise IP-100,2013-08-23 11:34:00,
2013-08-23 07:39:00,55.9,55.0,30.17,SE,135,1.0,0.0,97,0.00,,,0.00,Rainwise IP-100,2013-08-23 11:39:00,
2013-08-23 07:45:00,55.9,55.0,30.18,SE,135,0.0,2.0,97,0.00,,,0.00,Rainwise IP-100,2013-08-23 11:45:00,
2013-08-23 07:50:00,55.9,55.0,30.18,SE,135,0.0,0.0,97,0.00,,,0.00,Rainwise IP-100,2013-08-23 11:50:00,
2013-08-23 07:55:00,56.2,55.0,30.18,SE,135,1.0,0.0,97,0.00,,,0.00,Rainwise IP-100,2013-08-23 11:55:00,
2013-08-23 08:00:00,56.8,56.0,30.19,SE,135,0.0,1.0,97,0.00,,,0.00,Rainwise IP-100,2013-08-23 12:00:00,
2013-08-23 08:05:00,57.8,57.0,30.19,North,360,1.0,5.0,97,0.00,,,0.00,Rainwise IP-100,2013-08-23 12:05:00,
2013-08-23 08:10:00,58.5,58.0,30.19,NNE,22,2.0,4.0,98,0.00,,,0.00,Rainwise IP-100,2013-08-23 12:10:00,
2013-08-23 08:15:00,58.6,57.0,30.19,NE,45,1.0,4.0,95,0.00,,,0.00,Rainwise IP-100,2013-08-23 12:15:00,
2013-08-23 08:20:00,58.7,57.0,30.19,North,360,2.0,4.0,95,0.00,,,0.00,Rainwise IP-100,2013-08-23 12:20:00,
2013-08-23 08:25:00,58.9,57.0,30.20,NE,45,1.0,2.0,93,0.00,,,0.00,Rainwise IP-100,2013-08-23 12:25:00,
2013-08-23 08:30:00,59.2,56.0,30.20,North,360,3.0,4.0,89,0.00,,,0.00,Rainwise IP-100,2013-08-23 12:30:00,
2013-08-23 08:35:00,58.9,56.0,30.20,NNW,337,0.0,4.0,91,0.00,,,0.00,Rainwise IP-100,2013-08-23 12:35:00,
2013-08-23 08:40:00,58.6,56.0,30.20,NW,315,0.0,4.0,92,0.00,,,0.00,Rainwise IP-100,2013-08-23 12:40:00,
2013-08-23 08:46:00,58.6,56.0,30.20,North,360,2.0,3.0,91,0.00,,,0.00,Rainwise IP-100,2013-08-23 12:46:00,
2013-08-23 08:51:00,58.8,56.0,30.20,NW,315,3.0,4.0,92,0.00,,,0.00,Rainwise IP-100,2013-08-23 12:51:00,
2013-08-23 08:56:00,59.6,56.0,30.20,North,360,1.0,6.0,90,0.00,,,0.00,Rainwise IP-100,2013-08-23 12:56:00,
2013-08-23 09:01:00,60.6,56.0,30.20,North,360,3.0,4.0,86,0.00,,,0.00,Rainwise IP-100,2013-08-23 13:01:00,
2013-08-23 09:06:00,60.5,56.0,30.21,West,270,4.0,5.0,85,0.00,,,0.00,Rainwise IP-100,2013-08-23 13:06:00,
2013-08-23 09:11:00,60.3,56.0,30.21,North,360,2.0,4.0,87,0.00,,,0.00,Rainwise IP-100,2013-08-23 13:11:00,
2013-08-23 09:16:00,59.6,55.0,30.21,NW,315,1.0,2.0,86,0.00,,,0.00,Rainwise IP-100,2013-08-23 13:16:00,
2013-08-23 09:21:00,59.3,55.0,30.21,NNW,337,1.0,3.0,88,0.00,,,0.00,Rainwise IP-100,2013-08-23 13:21:00,
2013-08-23 09:26:00,59.3,56.0,30.22,NW,315,2.0,4.0,91,0.00,,,0.00,Rainwise IP-100,2013-08-23 13:26:00,
2013-08-23 09:31:00,59.9,56.0,30.22,NW,315,3.0,6.0,86,0.00,,,0.00,Rainwise IP-100,2013-08-23 13:31:00,
2013-08-23 09:36:00,59.9,56.0,30.22,NW,315,3.0,4.0,86,0.00,,,0.00,Rainwise IP-100,2013-08-23 13:36:00,
2013-08-23 09:41:00,60.3,55.0,30.22,NW,315,4.0,6.0,84,0.00,,,0.00,Rainwise IP-100,2013-08-23 13:41:00,
2013-08-23 09:47:00,60.7,56.0,30.23,North,360,2.0,5.0,84,0.00,,,0.00,Rainwise IP-100,2013-08-23 13:47:00,
2013-08-23 09:52:00,61.2,56.0,30.23,NW,315,2.0,4.0,83,0.00,,,0.00,Rainwise IP-100,2013-08-23 13:52:00,
2013-08-23 09:57:00,61.1,55.0,30.23,West,270,2.0,7.0,81,0.00,,,0.00,Rainwise IP-100,2013-08-23 13:57:00,
2013-08-23 10:02:00,61.3,54.0,30.23,NW,315,2.0,5.0,80,0.00,,,0.00,Rainwise IP-100,2013-08-23 14:02:00,
2013-08-23 10:07:00,61.5,56.0,30.23,West,270,4.0,6.0,81,0.00,,,0.00,Rainwise IP-100,2013-08-23 14:07:00,
2013-08-23 10:12:00,61.3,56.0,30.24,North,360,3.0,6.0,83,0.00,,,0.00,Rainwise IP-100,2013-08-23 14:12:00,
2013-08-23 10:17:00,61.6,54.0,30.24,North,360,5.0,6.0,78,0.00,,,0.00,Rainwise IP-100,2013-08-23 14:17:00,
2013-08-23 10:22:00,61.1,54.0,30.24,WSW,247,1.0,6.0,79,0.00,,,0.00,Rainwise IP-100,2013-08-23 14:22:00,
2013-08-23 10:27:00,61.2,54.0,30.24,NW,315,2.0,5.0,79,0.00,,,0.00,Rainwise IP-100,2013-08-23 14:27:00,
2013-08-23 10:32:00,60.9,55.0,30.24,NW,315,2.0,6.0,81,0.00,,,0.00,Rainwise IP-100,2013-08-23 14:32:00,
2013-08-23 10:37:00,61.9,54.0,30.24,North,360,2.0,6.0,77,0.00,,,0.00,Rainwise IP-100,2013-08-23 14:37:00,
2013-08-23 10:42:00,62.6,54.0,30.24,North,360,2.0,5.0,75,0.00,,,0.00,Rainwise IP-100,2013-08-23 14:42:00,
2013-08-23 10:48:00,62.7,54.0,30.25,NW,315,2.0,5.0,75,0.00,,,0.00,Rainwise IP-100,2013-08-23 14:48:00,
2013-08-23 10:53:00,62.7,54.0,30.25,SW,225,2.0,6.0,74,0.00,,,0.00,Rainwise IP-100,2013-08-23 14:53:00,
2013-08-23 10:58:00,63.3,54.0,30.25,North,360,6.0,6.0,73,0.00,,,0.00,Rainwise IP-100,2013-08-23 14:58:00,
2013-08-23 11:03:00,64.5,53.0,30.25,SE,135,2.0,6.0,68,0.00,,,0.00,Rainwise IP-100,2013-08-23 15:03:00,
2013-08-23 11:08:00,64.3,54.0,30.25,North,360,2.0,7.0,70,0.00,,,0.00,Rainwise IP-100,2013-08-23 15:08:00,
2013-08-23 11:13:00,65.4,53.0,30.26,NNE,22,3.0,7.0,63,0.00,,,0.00,Rainwise IP-100,2013-08-23 15:13:00,
2013-08-23 11:18:00,65.7,53.0,30.26,NW,315,2.0,9.0,63,0.00,,,0.00,Rainwise IP-100,2013-08-23 15:18:00,
2013-08-23 11:23:00,65.8,54.0,30.26,North,360,3.0,6.0,66,0.00,,,0.00,Rainwise IP-100,2013-08-23 15:23:00,
2013-08-23 11:28:00,65.0,53.0,30.26,West,270,5.0,8.0,66,0.00,,,0.00,Rainwise IP-100,2013-08-23 15:28:00,
2013-08-23 11:33:00,65.1,51.0,30.26,North,360,6.0,9.0,61,0.00,,,0.00,Rainwise IP-100,2013-08-23 15:33:00,
2013-08-23 11:38:00,65.5,53.0,30.26,North,360,5.0,9.0,63,0.00,,,0.00,Rainwise IP-100,2013-08-23 15:38:00,
2013-08-23 11:43:00,64.8,52.0,30.26,NW,315,6.0,11.0,64,0.00,,,0.00,Rainwise IP-100,2013-08-23 15:43:00,
2013-08-23 11:49:00,64.3,51.0,30.26,North,360,2.0,10.0,63,0.00,,,0.00,Rainwise IP-100,2013-08-23 15:49:00,
2013-08-23 11:54:00,64.6,51.0,30.26,NW,315,4.0,7.0,62,0.00,,,0.00,Rainwise IP-100,2013-08-23 15:54:00,
2013-08-23 11:59:00,65.9,53.0,30.26,NE,45,7.0,8.0,62,0.00,,,0.00,Rainwise IP-100,2013-08-23 15:59:00,
2013-08-23 12:04:00,66.2,53.0,30.26,ENE,67,5.0,6.0,62,0.00,,,0.00,Rainwise IP-100,2013-08-23 16:04:00,
2013-08-23 12:09:00,66.8,51.0,30.27,North,360,2.0,7.0,58,0.00,,,0.00,Rainwise IP-100,2013-08-23 16:09:00,
2013-08-23 12:14:00,66.7,51.0,30.26,North,360,6.0,9.0,58,0.00,,,0.00,Rainwise IP-100,2013-08-23 16:14:00,
2013-08-23 12:19:00,67.1,52.0,30.27,NE,45,4.0,10.0,58,0.00,,,0.00,Rainwise IP-100,2013-08-23 16:19:00,
2013-08-23 12:24:00,67.7,51.0,30.27,NW,315,5.0,8.0,56,0.00,,,0.00,Rainwise IP-100,2013-08-23 16:24:00,
2013-08-23 12:29:00,67.4,51.0,30.27,North,360,5.0,9.0,56,0.00,,,0.00,Rainwise IP-100,2013-08-23 16:29:00,
2013-08-23 12:34:00,66.7,50.0,30.27,North,360,6.0,7.0,56,0.00,,,0.00,Rainwise IP-100,2013-08-23 16:34:00,
2013-08-23 12:39:00,67.2,53.0,30.27,East,90,4.0,7.0,61,0.00,,,0.00,Rainwise IP-100,2013-08-23 16:39:00,
2013-08-23 12:44:00,67.2,53.0,30.27,North,360,6.0,8.0,59,0.00,,,0.00,Rainwise IP-100,2013-08-23 16:44:00,
2013-08-23 12:50:00,68.1,50.0,30.27,East,90,4.0,6.0,54,0.00,,,0.00,Rainwise IP-100,2013-08-23 16:50:00,
2013-08-23 12:55:00,66.7,51.0,30.27,ENE,67,2.0,5.0,58,0.00,,,0.00,Rainwise IP-100,2013-08-23 16:55:00,
2013-08-23 13:00:00,65.9,51.0,30.26,NE,45,4.0,7.0,60,0.00,,,0.00,Rainwise IP-100,2013-08-23 17:00:00,
2013-08-23 13:05:00,65.7,50.0,30.26,NW,315,3.0,8.0,58,0.00,,,0.00,Rainwise IP-100,2013-08-23 17:05:00,
2013-08-23 13:10:00,66.9,50.0,30.26,North,360,2.0,9.0,55,0.00,,,0.00,Rainwise IP-100,2013-08-23 17:10:00,
2013-08-23 13:15:00,67.8,52.0,30.26,NW,315,4.0,8.0,57,0.00,,,0.00,Rainwise IP-100,2013-08-23 17:15:00,
2013-08-23 13:20:00,67.2,51.0,30.26,NNE,22,4.0,11.0,57,0.00,,,0.00,Rainwise IP-100,2013-08-23 17:20:00,
2013-08-23 13:25:00,67.1,51.0,30.27,North,360,4.0,9.0,56,0.00,,,0.00,Rainwise IP-100,2013-08-23 17:25:00,
2013-08-23 13:30:00,67.7,49.0,30.27,North,360,4.0,9.0,52,0.00,,,0.00,Rainwise IP-100,2013-08-23 17:30:00,
2013-08-23 13:35:00,68.1,49.0,30.27,NE,45,1.0,11.0,50,0.00,,,0.00,Rainwise IP-100,2013-08-23 17:35:00,
2013-08-23 13:40:00,67.2,50.0,30.27,North,360,2.0,12.0,53,0.00,,,0.00,Rainwise IP-100,2013-08-23 17:40:00,
2013-08-23 13:45:00,68.0,50.0,30.27,SW,225,2.0,7.0,52,0.00,,,0.00,Rainwise IP-100,2013-08-23 17:45:00,
2013-08-23 13:51:00,68.4,50.0,30.27,NNW,337,2.0,7.0,51,0.00,,,0.00,Rainwise IP-100,2013-08-23 17:51:00,
2013-08-23 13:56:00,68.3,50.0,30.27,North,360,3.0,8.0,53,0.00,,,0.00,Rainwise IP-100,2013-08-23 17:56:00,
2013-08-23 14:01:00,67.3,50.0,30.27,NE,45,4.0,6.0,55,0.00,,,0.00,Rainwise IP-100,2013-08-23 18:01:00,
2013-08-23 14:06:00,67.7,51.0,30.27,ENE,67,2.0,8.0,56,0.00,,,0.00,Rainwise IP-100,2013-08-23 18:06:00,
2013-08-23 14:11:00,68.2,53.0,30.27,SW,225,2.0,7.0,58,0.00,,,0.00,Rainwise IP-100,2013-08-23 18:11:00,
2013-08-23 14:16:00,69.4,51.0,30.27,North,360,7.0,7.0,53,0.00,,,0.00,Rainwise IP-100,2013-08-23 18:16:00,
2013-08-23 14:21:00,68.9,51.0,30.27,NW,315,6.0,8.0,54,0.00,,,0.00,Rainwise IP-100,2013-08-23 18:21:00,
2013-08-23 14:26:00,68.5,50.0,30.27,West,270,6.0,8.0,53,0.00,,,0.00,Rainwise IP-100,2013-08-23 18:26:00,
2013-08-23 14:31:00,68.7,52.0,30.27,NW,315,2.0,8.0,55,0.00,,,0.00,Rainwise IP-100,2013-08-23 18:31:00,
2013-08-23 14:36:00,69.4,50.0,30.28,NE,45,2.0,6.0,50,0.00,,,0.00,Rainwise IP-100,2013-08-23 18:36:00,
2013-08-23 14:41:00,69.6,53.0,30.28,NNW,337,2.0,9.0,56,0.00,,,0.00,Rainwise IP-100,2013-08-23 18:41:00,
2013-08-23 14:46:00,68.1,51.0,30.28,North,360,7.0,7.0,55,0.00,,,0.00,Rainwise IP-100,2013-08-23 18:46:00,
2013-08-23 14:52:00,66.7,51.0,30.28,North,360,3.0,7.0,57,0.00,,,0.00,Rainwise IP-100,2013-08-23 18:52:00,
2013-08-23 14:57:00,66.9,50.0,30.28,NNW,337,2.0,6.0,54,0.00,,,0.00,Rainwise IP-100,2013-08-23 18:57:00,
2013-08-23 15:02:00,67.9,50.0,30.28,West,270,1.0,9.0,53,0.00,,,0.00,Rainwise IP-100,2013-08-23 19:02:00,
2013-08-23 15:07:00,68.5,50.0,30.28,North,360,4.0,9.0,52,0.00,,,0.00,Rainwise IP-100,2013-08-23 19:07:00,
2013-08-23 15:12:00,68.9,49.0,30.27,NNW,337,6.0,11.0,49,0.00,,,0.00,Rainwise IP-100,2013-08-23 19:12:00,
2013-08-23 15:17:00,69.6,49.0,30.28,North,360,2.0,8.0,48,0.00,,,0.00,Rainwise IP-100,2013-08-23 19:17:00,
2013-08-23 15:22:00,69.9,49.0,30.28,NW,315,4.0,9.0,47,0.00,,,0.00,Rainwise IP-100,2013-08-23 19:22:00,
2013-08-23 15:27:00,69.9,50.0,30.28,NE,45,4.0,6.0,48,0.00,,,0.00,Rainwise IP-100,2013-08-23 19:27:00,
2013-08-23 15:32:00,69.7,50.0,30.28,NW,315,4.0,11.0,51,0.00,,,0.00,Rainwise IP-100,2013-08-23 19:32:00,
2013-08-23 15:37:00,70.3,50.0,30.29,ESE,112,0.0,9.0,50,0.00,,,0.00,Rainwise IP-100,2013-08-23 19:37:00,
2013-08-23 15:42:00,68.9,50.0,30.29,North,360,2.0,14.0,50,0.00,,,0.00,Rainwise IP-100,2013-08-23 19:42:00,
2013-08-23 15:47:00,69.0,50.0,30.29,NE,45,4.0,9.0,50,0.00,,,0.00,Rainwise IP-100,2013-08-23 19:47:00,
2013-08-23 15:53:00,68.6,50.0,30.29,WNW,292,1.0,6.0,51,0.00,,,0.00,Rainwise IP-100,2013-08-23 19:53:00,
2013-08-23 15:58:00,68.8,48.0,30.29,West,270,0.0,8.0,49,0.00,,,0.00,Rainwise IP-100,2013-08-23 19:58:00,
2013-08-23 16:03:00,68.7,48.0,30.29,NW,315,4.0,7.0,49,0.00,,,0.00,Rainwise IP-100,2013-08-23 20:03:00,
2013-08-23 16:08:00,67.9,50.0,30.29,West,270,7.0,7.0,52,0.00,,,0.00,Rainwise IP-100,2013-08-23 20:08:00,
2013-08-23 16:13:00,67.6,50.0,30.29,North,360,2.0,7.0,54,0.00,,,0.00,Rainwise IP-100,2013-08-23 20:13:00,
2013-08-23 16:18:00,68.5,48.0,30.29,NE,45,1.0,7.0,48,0.00,,,0.00,Rainwise IP-100,2013-08-23 20:18:00,
2013-08-23 16:23:00,69.5,50.0,30.29,North,360,11.0,11.0,49,0.00,,,0.00,Rainwise IP-100,2013-08-23 20:23:00,
2013-08-23 16:28:00,69.6,50.0,30.29,NE,45,7.0,11.0,50,0.00,,,0.00,Rainwise IP-100,2013-08-23 20:28:00,
2013-08-23 16:33:00,69.2,50.0,30.29,NE,45,3.0,11.0,50,0.00,,,0.00,Rainwise IP-100,2013-08-23 20:33:00,
2013-08-23 16:38:00,69.1,47.0,30.30,NW,315,2.0,9.0,46,0.00,,,0.00,Rainwise IP-100,2013-08-23 20:38:00,
2013-08-23 16:43:00,69.5,46.0,30.30,NE,45,8.0,8.0,43,0.00,,,0.00,Rainwise IP-100,2013-08-23 20:43:00,
2013-08-23 16:48:00,69.2,47.0,30.30,North,360,2.0,8.0,45,0.00,,,0.00,Rainwise IP-100,2013-08-23 20:48:00,
2013-08-23 16:54:00,69.1,50.0,30.30,NW,315,2.0,9.0,50,0.00,,,0.00,Rainwise IP-100,2013-08-23 20:54:00,
2013-08-23 16:59:00,67.9,48.0,30.31,North,360,2.0,6.0,49,0.00,,,0.00,Rainwise IP-100,2013-08-23 20:59:00,
2013-08-23 17:04:00,66.9,50.0,30.30,West,270,2.0,7.0,55,0.00,,,0.00,Rainwise IP-100,2013-08-23 21:04:00,
2013-08-23 17:09:00,65.5,49.0,30.30,NW,315,1.0,6.0,55,0.00,,,0.00,Rainwise IP-100,2013-08-23 21:09:00,
2013-08-23 17:14:00,66.4,48.0,30.30,North,360,2.0,5.0,52,0.00,,,0.00,Rainwise IP-100,2013-08-23 21:14:00,
2013-08-23 17:19:00,67.3,48.0,30.30,NW,315,1.0,6.0,50,0.00,,,0.00,Rainwise IP-100,2013-08-23 21:19:00,
2013-08-23 17:24:00,67.6,47.0,30.30,NNE,22,0.0,6.0,49,0.00,,,0.00,Rainwise IP-100,2013-08-23 21:24:00,
2013-08-23 17:29:00,67.9,49.0,30.30,North,360,6.0,8.0,51,0.00,,,0.00,Rainwise IP-100,2013-08-23 21:29:00,
2013-08-23 17:34:00,67.7,49.0,30.31,NW,315,2.0,11.0,51,0.00,,,0.00,Rainwise IP-100,2013-08-23 21:34:00,
2013-08-23 17:39:00,66.9,51.0,30.31,NNW,337,2.0,5.0,56,0.00,,,0.00,Rainwise IP-100,2013-08-23 21:39:00,
2013-08-23 17:44:00,66.2,49.0,30.31,North,360,2.0,5.0,54,0.00,,,0.00,Rainwise IP-100,2013-08-23 21:44:00,
2013-08-23 17:49:00,66.5,48.0,30.31,North,360,4.0,9.0,52,0.00,,,0.00,Rainwise IP-100,2013-08-23 21:49:00,
2013-08-23 17:55:00,66.2,48.0,30.31,NW,315,2.0,7.0,53,0.00,,,0.00,Rainwise IP-100,2013-08-23 21:55:00,
2013-08-23 18:00:00,65.2,49.0,30.31,North,360,1.0,7.0,57,0.00,,,0.00,Rainwise IP-100,2013-08-23 22:00:00,
2013-08-23 18:05:00,64.4,50.0,30.31,North,360,0.0,5.0,59,0.00,,,0.00,Rainwise IP-100,2013-08-23 22:05:00,
2013-08-23 18:10:00,64.5,49.0,30.31,North,360,2.0,2.0,58,0.00,,,0.00,Rainwise IP-100,2013-08-23 22:10:00,
2013-08-23 18:15:00,64.7,49.0,30.31,NW,315,1.0,4.0,58,0.00,,,0.00,Rainwise IP-100,2013-08-23 22:15:00,
2013-08-23 18:20:00,63.7,49.0,30.31,North,360,2.0,6.0,59,0.00,,,0.00,Rainwise IP-100,2013-08-23 22:20:00,
2013-08-23 18:25:00,63.3,50.0,30.31,NNW,337,1.0,3.0,63,0.00,,,0.00,Rainwise IP-100,2013-08-23 22:25:00,
2013-08-23 18:30:00,62.4,50.0,30.31,North,360,2.0,2.0,64,0.00,,,0.00,Rainwise IP-100,2013-08-23 22:30:00,
2013-08-23 18:35:00,61.9,50.0,30.31,North,360,2.0,3.0,64,0.00,,,0.00,Rainwise IP-100,2013-08-23 22:35:00,
2013-08-23 18:40:00,61.5,49.0,30.31,North,360,2.0,7.0,64,0.00,,,0.00,Rainwise IP-100,2013-08-23 22:40:00,
2013-08-23 18:45:00,61.1,49.0,30.31,North,360,2.0,4.0,64,0.00,,,0.00,Rainwise IP-100,2013-08-23 22:45:00,
2013-08-23 18:50:00,60.8,50.0,30.31,NW,315,2.0,4.0,67,0.00,,,0.00,Rainwise IP-100,2013-08-23 22:50:00,
2013-08-23 18:56:00,60.3,50.0,30.31,NW,315,1.0,3.0,70,0.00,,,0.00,Rainwise IP-100,2013-08-23 22:56:00,
2013-08-23 19:01:00,59.6,50.0,30.30,North,360,1.0,2.0,72,0.00,,,0.00,Rainwise IP-100,2013-08-23 23:01:00,
2013-08-23 19:06:00,58.8,50.0,30.30,North,360,0.0,2.0,72,0.00,,,0.00,Rainwise IP-100,2013-08-23 23:06:00,
2013-08-23 19:11:00,57.9,51.0,30.31,North,360,2.0,2.0,78,0.00,,,0.00,Rainwise IP-100,2013-08-23 23:11:00,
2013-08-23 19:16:00,57.0,52.0,30.31,North,360,2.0,2.0,82,0.00,,,0.00,Rainwise IP-100,2013-08-23 23:16:00,
2013-08-23 19:21:00,56.2,51.0,30.31,North,360,1.0,2.0,85,0.00,,,0.00,Rainwise IP-100,2013-08-23 23:21:00,
2013-08-23 19:26:00,55.4,53.0,30.30,North,360,1.0,2.0,90,0.00,,,0.00,Rainwise IP-100,2013-08-23 23:26:00,
2013-08-23 19:31:00,54.8,52.0,30.30,North,360,2.0,2.0,91,0.00,,,0.00,Rainwise IP-100,2013-08-23 23:31:00,
2013-08-23 19:36:00,54.2,51.0,30.30,North,360,2.0,2.0,91,0.00,,,0.00,Rainwise IP-100,2013-08-23 23:36:00,
2013-08-23 19:41:00,53.7,51.0,30.30,North,360,2.0,2.0,92,0.00,,,0.00,Rainwise IP-100,2013-08-23 23:41:00,
2013-08-23 19:46:00,53.3,51.0,30.30,North,360,2.0,2.0,94,0.00,,,0.00,Rainwise IP-100,2013-08-23 23:46:00,
2013-08-23 19:51:00,52.8,51.0,30.30,North,360,2.0,2.0,96,0.00,,,0.00,Rainwise IP-100,2013-08-23 23:51:00,
2013-08-23 19:57:00,52.3,51.0,30.30,North,360,2.0,2.0,97,0.00,,,0.00,Rainwise IP-100,2013-08-23 23:57:00,
2013-08-23 20:02:00,51.9,51.0,30.30,North,360,1.0,2.0,97,0.00,,,0.00,Rainwise IP-100,2013-08-24 00:02:00,
2013-08-23 20:07:00,51.7,51.0,30.30,North,360,2.0,2.0,97,0.00,,,0.00,Rainwise IP-100,2013-08-24 00:07:00,
2013-08-23 20:12:00,51.3,50.0,30.30,North,360,2.0,2.0,97,0.00,,,0.00,Rainwise IP-100,2013-08-24 00:12:00,
2013-08-23 20:17:00,50.9,50.0,30.30,North,360,2.0,2.0,97,0.00,,,0.00,Rainwise IP-100,2013-08-24 00:17:00,
2013-08-23 20:22:00,50.6,50.0,30.31,North,360,0.0,2.0,97,0.00,,,0.00,Rainwise IP-100,2013-08-24 00:22:00,
2013-08-23 20:27:00,50.4,50.0,30.31,North,360,0.0,1.0,97,0.00,,,0.00,Rainwise IP-100,2013-08-24 00:27:00,
2013-08-23 20:32:00,50.2,49.0,30.31,North,360,0.0,0.0,97,0.00,,,0.00,Rainwise IP-100,2013-08-24 00:32:00,
2013-08-23 20:37:00,49.9,49.0,30.31,North,360,0.0,0.0,97,0.00,,,0.00,Rainwise IP-100,2013-08-24 00:37:00,
2013-08-23 20:42:00,49.5,49.0,30.31,North,360,0.0,2.0,97,0.00,,,0.00,Rainwise IP-100,2013-08-24 00:42:00,
2013-08-23 20:47:00,49.4,48.0,30.31,North,360,2.0,2.0,97,0.00,,,0.00,Rainwise IP-100,2013-08-24 00:47:00,
2013-08-23 20:52:00,49.1,48.0,30.31,North,360,0.0,2.0,97,0.00,,,0.00,Rainwise IP-100,2013-08-24 00:52:00,
2013-08-23 20:58:00,48.7,48.0,30.31,North,360,0.0,1.0,97,0.00,,,0.00,Rainwise IP-100,2013-08-24 00:58:00,
2013-08-23 21:03:00,48.5,48.0,30.31,North,360,0.0,0.0,97,0.00,,,0.00,Rainwise IP-100,2013-08-24 01:03:00,
2013-08-23 21:08:00,48.4,47.0,30.31,North,360,0.0,0.0,97,0.00,,,0.00,Rainwise IP-100,2013-08-24 01:08:00,
2013-08-23 21:13:00,48.2,47.0,30.32,North,360,0.0,2.0,97,0.00,,,0.00,Rainwise IP-100,2013-08-24 01:13:00,
2013-08-23 21:18:00,47.9,47.0,30.32,North,360,2.0,2.0,97,0.00,,,0.00,Rainwise IP-100,2013-08-24 01:18:00,
2013-08-23 21:23:00,47.9,47.0,30.32,North,360,1.0,2.0,97,0.00,,,0.00,Rainwise IP-100,2013-08-24 01:23:00,
2013-08-23 21:28:00,47.9,47.0,30.32,North,360,0.0,2.0,97,0.00,,,0.00,Rainwise IP-100,2013-08-24 01:28:00,
2013-08-23 21:33:00,47.7,47.0,30.32,North,360,1.0,2.0,97,0.00,,,0.00,Rainwise IP-100,2013-08-24 01:33:00,
2013-08-23 21:38:00,47.3,46.0,30.32,North,360,1.0,2.0,97,0.00,,,0.00,Rainwise IP-100,2013-08-24 01:38:00,
2013-08-23 21:43:00,47.2,46.0,30.32,North,360,0.0,1.0,97,0.00,,,0.00,Rainwise IP-100,2013-08-24 01:43:00,
2013-08-23 21:48:00,47.1,46.0,30.32,North,360,0.0,0.0,97,0.00,,,0.00,Rainwise IP-100,2013-08-24 01:48:00,
2013-08-23 21:53:00,46.7,46.0,30.33,North,360,1.0,1.0,97,0.00,,,0.00,Rainwise IP-100,2013-08-24 01:53:00,
2013-08-23 21:59:00,46.4,45.0,30.32,North,360,0.0,2.0,97,0.00,,,0.00,Rainwise IP-100,2013-08-24 01:59:00,
2013-08-23 22:04:00,46.4,45.0,30.33,North,360,2.0,2.0,97,0.00,,,0.00,Rainwise IP-100,2013-08-24 02:04:00,
2013-08-23 22:09:00,46.5,46.0,30.33,North,360,0.0,2.0,97,0.00,,,0.00,Rainwise IP-100,2013-08-24 02:09:00,
2013-08-23 22:14:00,46.6,46.0,30.33,North,360,0.0,2.0,97,0.00,,,0.00,Rainwise IP-100,2013-08-24 02:14:00,
2013-08-23 22:19:00,46.8,46.0,30.33,NW,315,0.0,2.0,97,0.00,,,0.00,Rainwise IP-100,2013-08-24 02:19:00,
2013-08-23 22:24:00,46.5,46.0,30.33,NW,315,1.0,1.0,97,0.00,,,0.00,Rainwise IP-100,2013-08-24 02:24:00,
2013-08-23 22:29:00,46.2,45.0,30.33,NW,315,1.0,2.0,97,0.00,,,0.00,Rainwise IP-100,2013-08-24 02:29:00,
2013-08-23 22:34:00,45.9,45.0,30.33,NW,315,0.0,1.0,97,0.00,,,0.00,Rainwise IP-100,2013-08-24 02:34:00,
2013-08-23 22:39:00,45.7,45.0,30.33,NW,315,0.0,0.0,97,0.00,,,0.00,Rainwise IP-100,2013-08-24 02:39:00,
2013-08-23 22:44:00,45.4,44.0,30.33,NW,315,0.0,1.0,97,0.00,,,0.00,Rainwise IP-100,2013-08-24 02:44:00,
2013-08-23 22:49:00,45.2,44.0,30.33,NW,315,1.0,2.0,97,0.00,,,0.00,Rainwise IP-100,2013-08-24 02:49:00,
2013-08-23 22:54:00,44.9,44.0,30.33,NW,315,0.0,2.0,96,0.00,,,0.00,Rainwise IP-100,2013-08-24 02:54:00,
2013-08-23 23:00:00,44.8,44.0,30.33,NW,315,0.0,2.0,96,0.00,,,0.00,Rainwise IP-100,2013-08-24 03:00:00,
2013-08-23 23:05:00,44.7,44.0,30.33,NW,315,0.0,0.0,96,0.00,,,0.00,Rainwise IP-100,2013-08-24 03:05:00,
2013-08-23 23:10:00,44.3,43.0,30.33,NW,315,0.0,0.0,96,0.00,,,0.00,Rainwise IP-100,2013-08-24 03:10:00,
2013-08-23 23:15:00,43.8,43.0,30.33,NW,315,0.0,0.0,96,0.00,,,0.00,Rainwise IP-100,2013-08-24 03:15:00,
2013-08-23 23:20:00,43.8,43.0,30.33,NW,315,2.0,2.0,96,0.00,,,0.00,Rainwise IP-100,2013-08-24 03:20:00,
2013-08-23 23:25:00,44.0,43.0,30.33,NW,315,0.0,2.0,96,0.00,,,0.00,Rainwise IP-100,2013-08-24 03:25:00,
2013-08-23 23:30:00,43.8,43.0,30.33,NW,315,2.0,2.0,96,0.00,,,0.00,Rainwise IP-100,2013-08-24 03:30:00,
2013-08-23 23:35:00,43.8,43.0,30.33,NW,315,0.0,2.0,96,0.00,,,0.00,Rainwise IP-100,2013-08-24 03:35:00,
2013-08-23 23:40:00,43.4,42.0,30.33,NW,315,0.0,1.0,96,0.00,,,0.00,Rainwise IP-100,2013-08-24 03:40:00,
2013-08-23 23:45:00,43.1,42.0,30.34,NW,315,0.0,0.0,96,0.00,,,0.00,Rainwise IP-100,2013-08-24 03:45:00,
2013-08-23 23:50:00,42.9,42.0,30.33,NW,315,0.0,0.0,96,0.00,,,0.00,Rainwise IP-100,2013-08-24 03:50:00,
2013-08-23 23:55:00,42.7,42.0,30.33,NW,315,2.0,2.0,96,0.00,,,0.00,Rainwise IP-100,2013-08-24 03:55:00,